Location: P�rn�nmaa
(61.1833°N, 23.0000°E)
Time: 18:26:21
(UTC+00:00)

COBE Rocket - Pass Details

Date: 08 December 2019
Orbit: 680 x 782 km, 97.1° (Epoch: 16 January)

Event Time Altitude Azimuth Distance (km) Brightness Sun altitude
Exits shadow 15:55:37 18° 25° (NNE) 1,678 5.4 -17.0°
Maximum altitude 15:59:01 57° 100° (E) 808 3.8 -17.3°
Drops below altitude 10° 16:03:36 10° 179° (S) 2,130 6.5 -17.9°
Sets 16:05:53 0° 184° (S) 3,048 7.4 -18.1°
